Location: The Saddle
(36.8333°N, 80.3417°W)
Time: 16:06:04
(UTC-05:00)

X-37B - Pass Details

Date: 29 November 2023
Orbit: 277 x 277 km, 45.0° (Epoch: 01 November)

Event Time Altitude Azimuth Distance (km) Brightness Sun altitude
Rises 17:58:34 0° 239° (WSW) 1,903 6.0 -10.6°
Reaches altitude 10° 18:00:29 10° 239° (WSW) 1,093 4.3 -11.0°
Maximum altitude 18:02:55 87° 155° (SSE) 280 -0.2 -11.4°
Enters shadow 18:04:12 24° 62° (ENE) 622 1.0 -11.7°
